START_TIME,STEP,MOV.,M34,t_acc.,L5,t_acc.,L18,t_acc.,L14,t_acc.
1979-07-07 00:00:25.350 ,0,0,2.,12.0,0.,12.0,0.,12.0,0.,12.0
1979-07-07 00:00:37.350 ,0,0,0.,12.0,0.,12.0,0.,12.0,1.,12.0
1979-07-07 00:00:49.340 ,1,1,1.,12.0,0.,12.0,0.,12.0,0.,12.0
1979-07-07 00:01:01.340 ,1,1,0.,12.0,0.,12.0,0.,12.0,0.,12.0
1979-07-07 00:01:13.340 ,1,0,3.,12.0,0.,12.0,0.,12.0,0.,12.0
1979-07-07 00:01:25.340 ,1,0,1.,12.0,0.,12.0,0.,12.0,0.,12.0
1979-07-07 00:01:37.340 ,2,1,1.,12.0,0.,12.0,0.,12.0,0.,12.0
1979-07-07 00:01:49.340 ,2,1,1.,12.0,0.,12.0,0.,12.0,0.,12.0
1979-07-07 00:02:01.340 ,2,0,0.,12.0,0.,12.0,0.,12.0,0.,12.0
1979-07-07 00:02:13.340 ,2,0,1.,12.0,0.,12.0,0.,12.0,0.,12.0
1979-07-07 00:02:25.340 ,3,1,0.,12.0,0.,12.0,0.,12.0,0.,12.0
1979-07-07 00:02:37.340 ,3,1,2.,12.0,0.,12.0,0.,12.0,0.,12.0
1979-07-07 00:02:49.340 ,3,0,1.,12.0,0.,12.0,0.,12.0,0.,12.0
1979-07-07 00:03:01.340 ,3,0,3.,12.0,0.,12.0,0.,12.0,0.,12.0
1979-07-07 00:03:13.340 ,4,1,2.,12.0,0.,12.0,0.,12.0,0.,12.0
1979-07-07 00:03:25.340 ,4,1,8.,12.0,0.,12.0,0.,12.0,0.,12.0
1979-07-07 00:03:37.340 ,4,0,3.,12.0,0.,12.0,0.,12.0,0.,12.0
1979-07-07 00:03:49.340 ,4,0,10.,12.0,0.,12.0,0.,12.0,0.,12.0
1979-07-07 00:04:01.340 ,5,1,6.,12.0,0.,12.0,0.,12.0,0.,12.0
1979-07-07 00:04:13.340 ,5,1,11.,12.0,0.,12.0,0.,12.0,0.,12.0
1979-07-07 00:04:25.340 ,5,0,10.,12.0,0.,12.0,0.,12.0,0.,12.0
1979-07-07 00:04:37.340 ,5,0,13.,12.0,0.,12.0,0.,12.0,0.,12.0
1979-07-07 00:04:49.340 ,6,1,8.,12.0,0.,12.0,0.,12.0,2.,12.0
1979-07-07 00:05:01.340 ,6,1,9.,12.0,0.,12.0,0.,12.0,0.,12.0
1979-07-07 00:05:13.340 ,6,0,8.,12.0,0.,12.0,0.,12.0,0.,12.0
1979-07-07 00:05:25.340 ,6,0,9.,12.0,0.,12.0,0.,12.0,0.,12.0
1979-07-07 00:05:37.340 ,7,1,11.,12.0,0.,12.0,0.,12.0,0.,12.0
1979-07-07 00:05:49.340 ,7,1,3.,12.0,0.,12.0,0.,12.0,0.,12.0
1979-07-07 00:06:01.340 ,7,0,0.,12.0,0.,12.0,0.,12.0,0.,12.0
1979-07-07 00:06:13.340 ,7,0,0.,12.0,0.,12.0,0.,12.0,0.,12.0
1979-07-07 00:06:25.340 ,7,1,0.,12.0,0.,12.0,0.,12.0,0.,12.0
1979-07-07 00:06:37.340 ,7,1,0.,12.0,0.,12.0,0.,12.0,1.,12.0
1979-07-07 00:06:49.340 ,7,0,0.,12.0,0.,12.0,0.,12.0,0.,12.0
1979-07-07 00:07:01.340 ,7,0,0.,12.0,0.,12.0,0.,12.0,0.,12.0
1979-07-07 00:07:13.340 ,6,1,0.,12.0,0.,12.0,0.,12.0,0.,12.0
1979-07-07 00:07:25.340 ,6,1,5.,12.0,0.,12.0,0.,12.0,0.,12.0
1979-07-07 00:07:37.340 ,6,0,5.,12.0,0.,12.0,0.,12.0,0.,12.0
1979-07-07 00:07:49.340 ,6,0,14.,12.0,0.,12.0,0.,12.0,0.,12.0
1979-07-07 00:08:01.340 ,5,1,14.,12.0,0.,12.0,0.,12.0,0.,12.0
1979-07-07 00:08:13.340 ,5,1,7.,12.0,0.,12.0,0.,12.0,0.,12.0
1979-07-07 00:08:25.340 ,5,0,11.,12.0,0.,12.0,0.,12.0,0.,12.0
1979-07-07 00:08:37.340 ,5,0,10.,12.0,0.,12.0,0.,12.0,0.,12.0
1979-07-07 00:08:49.340 ,4,1,12.,12.0,0.,12.0,0.,12.0,0.,12.0
1979-07-07 00:09:01.340 ,4,1,8.,12.0,0.,12.0,0.,12.0,0.,12.0
1979-07-07 00:09:13.340 ,4,0,3.,12.0,0.,12.0,0.,12.0,0.,12.0
1979-07-07 00:09:25.340 ,4,0,4.,12.0,0.,12.0,0.,12.0,0.,12.0
1979-07-07 00:09:37.340 ,3,1,5.,12.0,0.,12.0,0.,12.0,0.,12.0
1979-07-07 00:09:49.340 ,3,1,2.,12.0,0.,12.0,0.,12.0,0.,12.0
1979-07-07 00:10:01.340 ,3,0,2.,12.0,0.,12.0,0.,12.0,0.,12.0
1979-07-07 00:10:13.340 ,3,0,2.,12.0,0.,12.0,0.,12.0,0.,12.0
1979-07-07 00:10:25.340 ,2,1,3.,12.0,0.,12.0,0.,12.0,0.,12.0
1979-07-07 00:10:37.340 ,2,1,3.,12.0,0.,12.0,0.,12.0,0.,12.0
1979-07-07 00:10:49.340 ,2,0,1.,12.0,0.,12.0,0.,12.0,0.,12.0
1979-07-07 00:11:01.340 ,2,0,2.,12.0,0.,12.0,0.,12.0,0.,12.0
1979-07-07 00:11:13.340 ,1,1,2.,12.0,0.,12.0,0.,12.0,0.,12.0
1979-07-07 00:11:25.340 ,1,1,2.,12.0,0.,12.0,0.,12.0,0.,12.0
1979-07-07 00:11:37.340 ,1,0,4.,12.0,0.,12.0,0.,12.0,0.,12.0
1979-07-07 00:11:49.340 ,1,0,1.,12.0,0.,12.0,0.,12.0,0.,12.0
1979-07-07 00:12:01.340 ,0,1,3.,12.0,0.,12.0,0.,12.0,1.,12.0
1979-07-07 00:12:13.340 ,0,1,2.,12.0,0.,12.0,0.,12.0,0.,12.0
1979-07-07 00:12:25.340 ,0,0,2.,12.0,0.,12.0,0.,12.0,0.,12.0
1979-07-07 00:12:37.340 ,0,0,3.,12.0,0.,12.0,0.,12.0,0.,12.0
1979-07-07 00:12:49.340 ,0,1,2.,12.0,0.,12.0,0.,12.0,1.,12.0
1979-07-07 00:13:01.340 ,0,1,2.,12.0,0.,12.0,0.,12.0,0.,12.0
1979-07-07 00:13:13.340 ,0,0,3.,12.0,0.,12.0,0.,12.0,0.,12.0
1979-07-07 00:13:25.340 ,0,0,5.,12.0,0.,12.0,0.,12.0,1.,12.0
1979-07-07 00:13:37.340 ,1,1,4.,12.0,0.,12.0,0.,12.0,0.,12.0
1979-07-07 00:13:49.340 ,1,1,3.,12.0,0.,12.0,0.,12.0,0.,12.0
1979-07-07 00:14:01.340 ,1,0,4.,12.0,0.,12.0,0.,12.0,0.,12.0
1979-07-07 00:14:13.340 ,1,0,2.,12.0,0.,12.0,0.,12.0,0.,12.0
1979-07-07 00:14:25.340 ,2,1,1.,12.0,0.,12.0,0.,12.0,0.,12.0
1979-07-07 00:14:37.340 ,2,1,3.,12.0,0.,12.0,0.,12.0,0.,12.0
1979-07-07 00:14:49.340 ,2,0,2.,12.0,0.,12.0,0.,12.0,0.,12.0
1979-07-07 00:15:01.340 ,2,0,6.,12.0,0.,12.0,0.,12.0,0.,12.0
1979-07-07 00:15:13.340 ,3,1,2.,12.0,0.,12.0,0.,12.0,0.,12.0
1979-07-07 00:15:25.340 ,3,1,1.,12.0,0.,12.0,0.,12.0,0.,12.0
1979-07-07 00:15:37.340 ,3,0,3.,12.0,0.,12.0,0.,12.0,1.,12.0
1979-07-07 00:15:49.340 ,3,0,3.,12.0,0.,12.0,0.,12.0,0.,12.0
1979-07-07 00:16:01.340 ,4,1,5.,12.0,0.,12.0,0.,12.0,0.,12.0
1979-07-07 00:16:13.340 ,4,1,4.,12.0,0.,12.0,0.,12.0,1.,12.0
1979-07-07 00:16:25.340 ,4,0,2.,12.0,0.,12.0,0.,12.0,0.,12.0
1979-07-07 00:16:37.340 ,4,0,7.,12.0,0.,12.0,0.,12.0,1.,12.0
1979-07-07 00:16:49.340 ,5,1,7.,12.0,0.,12.0,0.,12.0,0.,12.0
1979-07-07 00:17:01.340 ,5,1,12.,12.0,0.,12.0,0.,12.0,1.,12.0
1979-07-07 00:17:13.340 ,5,0,12.,12.0,0.,12.0,0.,12.0,1.,12.0
1979-07-07 00:17:25.340 ,5,0,8.,12.0,0.,12.0,0.,12.0,0.,12.0
1979-07-07 00:17:37.340 ,6,1,3.,12.0,0.,12.0,0.,12.0,0.,12.0
1979-07-07 00:17:49.340 ,6,1,7.,12.0,0.,12.0,0.,12.0,1.,12.0
1979-07-07 00:18:01.340 ,6,0,5.,12.0,0.,12.0,0.,12.0,1.,12.0
1979-07-07 00:18:13.340 ,6,0,8.,12.0,0.,12.0,0.,12.0,0.,12.0
1979-07-07 00:18:25.340 ,7,0,6.,12.0,0.,12.0,0.,12.0,0.,12.0
1979-07-07 00:18:37.340 ,7,0,2.,12.0,0.,12.0,0.,12.0,0.,12.0
1979-07-07 00:18:49.340 ,7,0,0.,12.0,0.,12.0,0.,12.0,0.,12.0
1979-07-07 00:19:01.340 ,7,0,0.,12.0,0.,12.0,0.,12.0,0.,12.0
1979-07-07 00:19:13.340 ,4,1,0.,12.0,0.,12.0,0.,12.0,0.,12.0
1979-07-07 00:19:25.340 ,4,1,8.,12.0,0.,12.0,0.,12.0,0.,12.0
1979-07-07 00:19:37.340 ,0,1,3.,12.0,0.,12.0,0.,12.0,0.,12.0
1979-07-07 00:19:49.340 ,0,1,1.,12.0,0.,12.0,0.,12.0,0.,12.0
1979-07-07 00:20:01.340 ,3,1,0.,12.0,0.,12.0,0.,12.0,0.,12.0
1979-07-07 00:20:13.340 ,3,1,1.,12.0,0.,12.0,0.,12.0,0.,12.0
1979-07-07 00:20:25.340 ,7,1,5.,12.0,0.,12.0,0.,12.0,0.,12.0
1979-07-07 00:20:37.340 ,7,1,5.,12.0,0.,12.0,0.,12.0,0.,12.0
1979-07-07 00:20:49.340 ,4,1,4.,12.0,0.,12.0,0.,12.0,0.,12.0
1979-07-07 00:21:01.340 ,4,1,6.,12.0,0.,12.0,0.,12.0,1.,12.0
1979-07-07 00:21:13.340 ,0,0,3.,12.0,0.,12.0,0.,12.0,0.,12.0
1979-07-07 00:21:25.340 ,0,0,0.,12.0,0.,12.0,0.,12.0,1.,12.0
1979-07-07 00:21:33.740 ,0,1,,0,,0,,0,,0
1979-07-07 00:21:45.740 ,0,1,,0,,0,,0,,0
1979-07-07 00:21:37.340 ,3,1,1.,12.0,0.,12.0,0.,12.0,0.,12.0
1979-07-07 00:21:49.340 ,3,1,2.,12.0,0.,12.0,0.,12.0,0.,12.0
1979-07-07 00:22:01.340 ,7,1,9.,12.0,0.,12.0,0.,12.0,0.,12.0
1979-07-07 00:22:13.340 ,7,1,6.,12.0,0.,12.0,0.,12.0,0.,12.0
1979-07-07 00:22:25.340 ,4,1,0.,12.0,0.,12.0,0.,12.0,0.,12.0
1979-07-07 00:22:37.340 ,4,1,4.,12.0,0.,12.0,0.,12.0,0.,12.0
1979-07-07 00:22:49.340 ,0,1,4.,12.0,0.,12.0,0.,12.0,0.,12.0
1979-07-07 00:23:01.340 ,0,1,1.,12.0,0.,12.0,0.,12.0,0.,12.0
1979-07-07 00:23:13.340 ,3,1,9.,12.0,0.,12.0,0.,12.0,0.,12.0
1979-07-07 00:23:25.340 ,3,1,2.,12.0,0.,12.0,0.,12.0,0.,12.0
1979-07-07 00:23:37.340 ,7,1,7.,12.0,0.,12.0,0.,12.0,0.,12.0
1979-07-07 00:23:49.340 ,7,1,6.,12.0,0.,12.0,0.,12.0,0.,12.0
1979-07-07 00:24:01.340 ,4,1,0.,12.0,0.,12.0,0.,12.0,0.,12.0
1979-07-07 00:24:13.340 ,4,1,7.,12.0,0.,12.0,0.,12.0,0.,12.0
1979-07-07 00:24:25.340 ,0,1,1.,12.0,0.,12.0,0.,12.0,0.,12.0
1979-07-07 00:24:37.340 ,0,1,3.,12.0,0.,12.0,0.,12.0,0.,12.0
1979-07-07 00:24:49.340 ,3,1,1.,12.0,0.,12.0,0.,12.0,0.,12.0
1979-07-07 00:25:01.340 ,3,1,1.,12.0,0.,12.0,0.,12.0,0.,12.0
1979-07-07 00:25:13.340 ,7,1,8.,12.0,0.,12.0,0.,12.0,0.,12.0
1979-07-07 00:25:25.340 ,7,1,7.,12.0,0.,12.0,0.,12.0,0.,12.0
1979-07-07 00:25:37.340 ,4,1,2.,12.0,0.,12.0,0.,12.0,0.,12.0
1979-07-07 00:25:49.340 ,4,1,3.,12.0,0.,12.0,0.,12.0,0.,12.0
1979-07-07 00:26:01.340 ,0,1,2.,12.0,0.,12.0,0.,12.0,0.,12.0
1979-07-07 00:26:13.340 ,0,1,1.,12.0,0.,12.0,0.,12.0,0.,12.0
1979-07-07 00:26:25.340 ,3,1,2.,12.0,0.,12.0,0.,12.0,0.,12.0
1979-07-07 00:26:37.340 ,3,1,1.,12.0,0.,12.0,0.,12.0,0.,12.0
1979-07-07 00:26:49.340 ,7,1,3.,12.0,0.,12.0,0.,12.0,0.,12.0
1979-07-07 00:27:01.340 ,7,1,5.,12.0,0.,12.0,0.,12.0,0.,12.0
1979-07-07 00:27:13.340 ,4,1,1.,12.0,0.,12.0,0.,12.0,0.,12.0
1979-07-07 00:27:25.340 ,4,1,5.,12.0,0.,12.0,0.,12.0,0.,12.0
1979-07-07 00:27:37.340 ,0,1,2.,12.0,0.,12.0,0.,12.0,0.,12.0
1979-07-07 00:27:49.340 ,0,1,0.,12.0,0.,12.0,0.,12.0,0.,12.0
1979-07-07 00:28:01.340 ,3,1,1.,12.0,0.,12.0,0.,12.0,0.,12.0
1979-07-07 00:28:13.340 ,3,1,4.,12.0,0.,12.0,0.,12.0,0.,12.0
1979-07-07 00:28:25.340 ,7,1,7.,12.0,0.,12.0,0.,12.0,0.,12.0
1979-07-07 00:28:37.340 ,7,1,4.,12.0,0.,12.0,0.,12.0,0.,12.0
1979-07-07 00:28:49.340 ,4,1,0.,12.0,0.,12.0,0.,12.0,0.,12.0
1979-07-07 00:29:01.340 ,4,1,5.,12.0,0.,12.0,0.,12.0,0.,12.0
1979-07-07 00:29:13.340 ,0,1,1.,12.0,0.,12.0,0.,12.0,0.,12.0
1979-07-07 00:29:25.340 ,0,1,0.,12.0,0.,12.0,0.,12.0,0.,12.0
1979-07-07 00:29:37.340 ,0,0,0.,12.0,0.,12.0,0.,12.0,0.,12.0
1979-07-07 00:29:49.340 ,0,0,1.,12.0,0.,12.0,0.,12.0,0.,12.0
1979-07-07 00:30:01.340 ,0,0,5.,12.0,0.,12.0,0.,12.0,0.,12.0
1979-07-07 00:30:13.340 ,0,0,5.,12.0,0.,12.0,0.,12.0,0.,12.0
1979-07-07 00:30:25.340 ,5,1,2.,12.0,0.,12.0,0.,12.0,0.,12.0
1979-07-07 00:30:37.340 ,5,1,5.,12.0,0.,12.0,0.,12.0,0.,12.0
1979-07-07 00:30:49.340 ,5,0,4.,12.0,0.,12.0,0.,12.0,0.,12.0
1979-07-07 00:31:01.340 ,5,0,7.,12.0,0.,12.0,0.,12.0,1.,12.0
1979-07-07 00:31:13.340 ,4,1,5.,12.0,0.,12.0,0.,12.0,0.,12.0
1979-07-07 00:31:25.340 ,4,1,2.,12.0,0.,12.0,0.,12.0,0.,12.0
1979-07-07 00:31:37.340 ,4,0,1.,12.0,0.,12.0,0.,12.0,0.,12.0
1979-07-07 00:31:49.340 ,4,0,2.,12.0,0.,12.0,0.,12.0,0.,12.0
1979-07-07 00:32:01.340 ,3,1,4.,12.0,0.,12.0,0.,12.0,0.,12.0
1979-07-07 00:32:13.340 ,3,1,3.,12.0,0.,12.0,0.,12.0,0.,12.0
1979-07-07 00:32:25.340 ,3,0,1.,12.0,0.,12.0,0.,12.0,0.,12.0
1979-07-07 00:32:37.340 ,3,0,1.,12.0,0.,12.0,0.,12.0,0.,12.0
1979-07-07 00:32:49.340 ,2,1,3.,12.0,0.,12.0,0.,12.0,0.,12.0
1979-07-07 00:33:01.340 ,2,1,1.,12.0,0.,12.0,0.,12.0,0.,12.0
1979-07-07 00:33:13.340 ,2,0,1.,12.0,0.,12.0,0.,12.0,0.,12.0
1979-07-07 00:33:25.340 ,2,0,0.,12.0,0.,12.0,0.,12.0,0.,12.0
1979-07-07 00:33:37.340 ,1,1,1.,12.0,0.,12.0,0.,12.0,0.,12.0
1979-07-07 00:33:49.340 ,1,1,0.,12.0,0.,12.0,0.,12.0,0.,12.0
1979-07-07 00:34:01.340 ,1,0,1.,12.0,0.,12.0,0.,12.0,0.,12.0
1979-07-07 00:34:13.340 ,1,0,3.,12.0,0.,12.0,0.,12.0,0.,12.0
1979-07-07 00:34:25.340 ,0,1,0.,12.0,0.,12.0,0.,12.0,0.,12.0
1979-07-07 00:34:37.340 ,0,1,2.,12.0,0.,12.0,0.,12.0,0.,12.0
1979-07-07 00:34:49.340 ,0,0,1.,12.0,0.,12.0,0.,12.0,1.,12.0
1979-07-07 00:35:01.340 ,0,0,3.,12.0,0.,12.0,0.,12.0,0.,12.0
1979-07-07 00:35:13.340 ,0,1,2.,12.0,0.,12.0,0.,12.0,0.,12.0
1979-07-07 00:35:25.340 ,0,1,2.,12.0,0.,12.0,0.,12.0,0.,12.0
1979-07-07 00:35:37.340 ,0,0,0.,12.0,0.,12.0,0.,12.0,0.,12.0
1979-07-07 00:35:49.340 ,0,0,1.,12.0,0.,12.0,0.,12.0,0.,12.0
1979-07-07 00:36:01.340 ,1,1,6.,12.0,0.,12.0,0.,12.0,0.,12.0
1979-07-07 00:36:13.340 ,1,1,2.,12.0,0.,12.0,0.,12.0,0.,12.0
1979-07-07 00:36:25.340 ,1,0,1.,12.0,0.,12.0,0.,12.0,0.,12.0
1979-07-07 00:36:37.340 ,1,0,2.,12.0,0.,12.0,0.,12.0,0.,12.0
1979-07-07 00:36:49.340 ,2,1,2.,12.0,0.,12.0,0.,12.0,0.,12.0
1979-07-07 00:37:01.340 ,2,1,0.,12.0,0.,12.0,0.,12.0,0.,12.0
1979-07-07 00:37:13.340 ,2,0,4.,12.0,0.,12.0,0.,12.0,0.,12.0
1979-07-07 00:37:25.340 ,2,0,2.,12.0,0.,12.0,0.,12.0,0.,12.0
1979-07-07 00:37:37.340 ,3,1,2.,12.0,0.,12.0,0.,12.0,0.,12.0
1979-07-07 00:37:49.340 ,3,1,2.,12.0,0.,12.0,0.,12.0,0.,12.0
1979-07-07 00:38:01.340 ,3,0,5.,12.0,0.,12.0,0.,12.0,0.,12.0
1979-07-07 00:38:13.340 ,3,0,5.,12.0,0.,12.0,0.,12.0,0.,12.0
1979-07-07 00:38:25.340 ,4,1,3.,12.0,0.,12.0,0.,12.0,0.,12.0
1979-07-07 00:38:37.340 ,4,1,8.,12.0,0.,12.0,0.,12.0,0.,12.0
1979-07-07 00:38:49.340 ,4,0,2.,12.0,0.,12.0,0.,12.0,0.,12.0
1979-07-07 00:39:01.340 ,4,0,3.,12.0,0.,12.0,0.,12.0,1.,12.0
1979-07-07 00:39:13.340 ,5,1,7.,12.0,0.,12.0,0.,12.0,1.,12.0
1979-07-07 00:39:25.340 ,5,1,10.,12.0,0.,12.0,0.,12.0,0.,12.0
1979-07-07 00:39:37.340 ,5,0,10.,12.0,0.,12.0,0.,12.0,0.,12.0
1979-07-07 00:39:49.340 ,5,0,6.,12.0,0.,12.0,0.,12.0,0.,12.0
1979-07-07 00:40:01.340 ,6,1,11.,12.0,0.,12.0,0.,12.0,0.,12.0
1979-07-07 00:40:13.340 ,6,1,5.,12.0,0.,12.0,0.,12.0,0.,12.0
1979-07-07 00:40:25.340 ,6,0,4.,12.0,0.,12.0,0.,12.0,0.,12.0
1979-07-07 00:40:37.340 ,6,0,7.,12.0,0.,12.0,0.,12.0,0.,12.0
1979-07-07 00:40:49.340 ,7,1,8.,12.0,0.,12.0,0.,12.0,0.,12.0
1979-07-07 00:41:01.340 ,7,1,5.,12.0,0.,12.0,0.,12.0,0.,12.0
1979-07-07 00:41:13.340 ,7,0,0.,12.0,0.,12.0,0.,12.0,0.,12.0
1979-07-07 00:41:25.340 ,7,0,0.,12.0,0.,12.0,0.,12.0,0.,12.0
1979-07-07 00:41:37.340 ,7,1,0.,12.0,0.,12.0,0.,12.0,0.,12.0
1979-07-07 00:41:49.340 ,7,1,0.,12.0,0.,12.0,0.,12.0,0.,12.0
1979-07-07 00:42:01.340 ,7,0,0.,12.0,0.,12.0,0.,12.0,0.,12.0
1979-07-07 00:42:13.340 ,7,0,0.,12.0,0.,12.0,0.,12.0,0.,12.0
1979-07-07 00:42:25.340 ,6,1,0.,12.0,0.,12.0,0.,12.0,0.,12.0
1979-07-07 00:42:37.340 ,6,1,4.,12.0,0.,12.0,0.,12.0,0.,12.0
1979-07-07 00:42:49.340 ,6,0,15.,12.0,1.,12.0,0.,12.0,0.,12.0
1979-07-07 00:43:01.340 ,6,0,16.,12.0,0.,12.0,0.,12.0,0.,12.0
1979-07-07 00:43:13.340 ,5,1,9.,12.0,0.,12.0,0.,12.0,0.,12.0
1979-07-07 00:43:25.340 ,5,1,6.,12.0,0.,12.0,0.,12.0,0.,12.0
1979-07-07 00:43:37.340 ,5,0,8.,12.0,0.,12.0,0.,12.0,0.,12.0
1979-07-07 00:43:49.340 ,5,0,3.,12.0,0.,12.0,0.,12.0,0.,12.0
1979-07-07 00:44:01.340 ,4,1,8.,12.0,0.,12.0,0.,12.0,1.,12.0
1979-07-07 00:44:13.340 ,4,1,8.,12.0,0.,12.0,0.,12.0,0.,12.0
1979-07-07 00:44:25.340 ,4,0,6.,12.0,0.,12.0,0.,12.0,0.,12.0
1979-07-07 00:44:37.340 ,4,0,1.,12.0,0.,12.0,0.,12.0,0.,12.0
1979-07-07 00:44:49.340 ,3,1,7.,12.0,0.,12.0,0.,12.0,0.,12.0
1979-07-07 00:45:01.340 ,3,1,3.,12.0,0.,12.0,0.,12.0,0.,12.0
1979-07-07 00:45:13.340 ,3,0,4.,12.0,0.,12.0,0.,12.0,0.,12.0
1979-07-07 00:45:25.340 ,3,0,4.,12.0,0.,12.0,0.,12.0,0.,12.0
1979-07-07 00:45:37.340 ,2,1,5.,12.0,0.,12.0,0.,12.0,0.,12.0
1979-07-07 00:45:49.340 ,2,1,2.,12.0,0.,12.0,0.,12.0,0.,12.0
1979-07-07 00:46:01.340 ,2,0,0.,12.0,0.,12.0,0.,12.0,0.,12.0
1979-07-07 00:46:13.340 ,2,0,1.,12.0,0.,12.0,0.,12.0,0.,12.0
1979-07-07 00:46:25.340 ,1,1,3.,12.0,0.,12.0,0.,12.0,0.,12.0
1979-07-07 00:46:37.340 ,1,1,0.,12.0,0.,12.0,0.,12.0,0.,12.0
1979-07-07 00:46:49.340 ,1,0,0.,12.0,0.,12.0,0.,12.0,0.,12.0
1979-07-07 00:47:01.340 ,1,0,2.,12.0,0.,12.0,0.,12.0,0.,12.0
1979-07-07 00:47:13.340 ,0,1,0.,12.0,0.,12.0,0.,12.0,0.,12.0
1979-07-07 00:47:25.340 ,0,1,1.,12.0,0.,12.0,0.,12.0,0.,12.0
1979-07-07 00:47:37.340 ,0,0,4.,12.0,0.,12.0,0.,12.0,1.,12.0
1979-07-07 00:47:49.340 ,0,0,0.,12.0,0.,12.0,0.,12.0,0.,12.0
1979-07-07 00:48:01.340 ,0,1,4.,12.0,0.,12.0,0.,12.0,0.,12.0
1979-07-07 00:48:13.340 ,0,1,3.,12.0,0.,12.0,0.,12.0,0.,12.0
1979-07-07 00:48:25.340 ,0,0,1.,12.0,0.,12.0,0.,12.0,0.,12.0
1979-07-07 00:48:37.340 ,0,0,5.,12.0,0.,12.0,0.,12.0,0.,12.0
1979-07-07 00:48:49.340 ,1,1,1.,12.0,0.,12.0,0.,12.0,0.,12.0
1979-07-07 00:49:01.340 ,1,1,2.,12.0,0.,12.0,0.,12.0,0.,12.0
1979-07-07 00:49:13.340 ,1,0,0.,12.0,0.,12.0,0.,12.0,0.,12.0
1979-07-07 00:49:25.340 ,1,0,1.,12.0,0.,12.0,0.,12.0,0.,12.0
1979-07-07 00:49:37.340 ,2,1,1.,12.0,0.,12.0,0.,12.0,0.,12.0
1979-07-07 00:49:49.340 ,2,1,0.,12.0,0.,12.0,0.,12.0,0.,12.0
1979-07-07 00:50:01.340 ,2,0,1.,12.0,0.,12.0,0.,12.0,0.,12.0
1979-07-07 00:50:13.340 ,2,0,1.,12.0,0.,12.0,0.,12.0,0.,12.0
1979-07-07 00:50:25.340 ,3,1,0.,12.0,0.,12.0,0.,12.0,0.,12.0
1979-07-07 00:50:37.340 ,3,1,1.,12.0,0.,12.0,0.,12.0,0.,12.0
1979-07-07 00:50:49.340 ,3,0,2.,12.0,0.,12.0,0.,12.0,0.,12.0
1979-07-07 00:51:01.340 ,3,0,3.,12.0,0.,12.0,0.,12.0,0.,12.0
1979-07-07 00:51:13.340 ,4,1,2.,12.0,0.,12.0,0.,12.0,0.,12.0
1979-07-07 00:51:25.340 ,4,1,5.,12.0,0.,12.0,0.,12.0,1.,12.0
1979-07-07 00:51:37.340 ,4,0,8.,12.0,0.,12.0,0.,12.0,0.,12.0
1979-07-07 00:51:49.340 ,4,0,5.,12.0,0.,12.0,0.,12.0,0.,12.0
1979-07-07 00:52:01.340 ,5,1,3.,12.0,0.,12.0,0.,12.0,0.,12.0
1979-07-07 00:52:13.340 ,5,1,8.,12.0,0.,12.0,0.,12.0,0.,12.0
1979-07-07 00:52:25.340 ,5,0,12.,12.0,0.,12.0,0.,12.0,0.,12.0
1979-07-07 00:52:37.340 ,5,0,11.,12.0,0.,12.0,0.,12.0,0.,12.0
1979-07-07 00:52:49.340 ,6,1,10.,12.0,0.,12.0,0.,12.0,0.,12.0
1979-07-07 00:53:01.340 ,6,1,10.,12.0,0.,12.0,0.,12.0,0.,12.0
1979-07-07 00:53:13.340 ,6,0,10.,12.0,0.,12.0,0.,12.0,0.,12.0
1979-07-07 00:53:25.340 ,6,0,1.,12.0,0.,12.0,0.,12.0,0.,12.0
1979-07-07 00:53:37.340 ,7,1,7.,12.0,0.,12.0,0.,12.0,0.,12.0
1979-07-07 00:53:49.340 ,7,1,3.,12.0,0.,12.0,0.,12.0,1.,12.0
1979-07-07 00:54:01.340 ,7,0,0.,12.0,0.,12.0,0.,12.0,0.,12.0
1979-07-07 00:54:13.340 ,7,0,0.,12.0,0.,12.0,0.,12.0,0.,12.0
1979-07-07 00:54:25.340 ,7,1,0.,12.0,0.,12.0,0.,12.0,0.,12.0
1979-07-07 00:54:37.340 ,7,1,0.,12.0,0.,12.0,0.,12.0,0.,12.0
1979-07-07 00:54:49.340 ,7,0,0.,12.0,0.,12.0,0.,12.0,0.,12.0
1979-07-07 00:55:01.340 ,7,0,0.,12.0,0.,12.0,0.,12.0,0.,12.0
1979-07-07 00:55:13.340 ,6,1,0.,12.0,0.,12.0,0.,12.0,0.,12.0
1979-07-07 00:55:25.340 ,6,1,6.,12.0,0.,12.0,0.,12.0,0.,12.0
1979-07-07 00:55:37.340 ,6,0,10.,12.0,0.,12.0,0.,12.0,0.,12.0
1979-07-07 00:55:49.340 ,6,0,9.,12.0,0.,12.0,0.,12.0,0.,12.0
1979-07-07 00:56:01.340 ,5,1,14.,12.0,0.,12.0,0.,12.0,1.,12.0
1979-07-07 00:56:13.340 ,5,1,12.,12.0,0.,12.0,0.,12.0,0.,12.0
1979-07-07 00:56:25.340 ,5,0,9.,12.0,0.,12.0,0.,12.0,1.,12.0
1979-07-07 00:56:37.340 ,5,0,14.,12.0,0.,12.0,0.,12.0,0.,12.0
1979-07-07 00:56:49.340 ,4,1,14.,12.0,0.,12.0,0.,12.0,0.,12.0
1979-07-07 00:57:01.340 ,4,1,9.,12.0,0.,12.0,0.,12.0,0.,12.0
1979-07-07 00:57:13.340 ,4,0,8.,12.0,0.,12.0,0.,12.0,0.,12.0
1979-07-07 00:57:25.340 ,4,0,6.,12.0,0.,12.0,0.,12.0,0.,12.0
1979-07-07 00:57:37.340 ,3,1,9.,12.0,0.,12.0,0.,12.0,0.,12.0
1979-07-07 00:57:49.340 ,3,1,8.,12.0,0.,12.0,0.,12.0,0.,12.0
1979-07-07 00:58:01.340 ,3,0,6.,12.0,0.,12.0,0.,12.0,0.,12.0
1979-07-07 00:58:13.340 ,3,0,2.,12.0,0.,12.0,0.,12.0,0.,12.0
1979-07-07 00:58:25.340 ,2,1,3.,12.0,0.,12.0,0.,12.0,0.,12.0
1979-07-07 00:58:37.340 ,2,1,5.,12.0,0.,12.0,0.,12.0,0.,12.0
1979-07-07 00:58:49.340 ,2,0,1.,12.0,0.,12.0,0.,12.0,0.,12.0
1979-07-07 00:59:01.340 ,2,0,0.,12.0,0.,12.0,0.,12.0,0.,12.0
1979-07-07 00:59:13.340 ,1,1,0.,12.0,0.,12.0,0.,12.0,0.,12.0
1979-07-07 00:59:25.340 ,1,1,0.,12.0,0.,12.0,0.,12.0,0.,12.0
1979-07-07 00:59:37.340 ,1,0,2.,12.0,0.,12.0,0.,12.0,0.,12.0
1979-07-07 00:59:49.340 ,1,0,4.,12.0,0.,12.0,0.,12.0,0.,12.0
1979-07-07 01:00:01.340 ,0,1,0.,12.0,0.,12.0,0.,12.0,0.,12.0
1979-07-07 01:00:13.340 ,0,1,2.,12.0,0.,12.0,0.,12.0,0.,12.0
1979-07-07 01:00:25.340 ,0,0,3.,12.0,0.,12.0,0.,12.0,0.,12.0
1979-07-07 01:00:37.340 ,0,0,2.,12.0,0.,12.0,0.,12.0,0.,12.0
1979-07-07 01:00:49.340 ,0,1,4.,12.0,0.,12.0,0.,12.0,0.,12.0
1979-07-07 01:01:01.340 ,0,1,2.,12.0,0.,12.0,0.,12.0,0.,12.0
1979-07-07 01:01:13.340 ,0,0,2.,12.0,0.,12.0,0.,12.0,0.,12.0
1979-07-07 01:01:25.340 ,0,0,1.,12.0,0.,12.0,0.,12.0,0.,12.0
1979-07-07 01:01:37.340 ,1,1,6.,12.0,0.,12.0,0.,12.0,0.,12.0
1979-07-07 01:01:49.340 ,1,1,4.,12.0,0.,12.0,0.,12.0,0.,12.0
1979-07-07 01:02:01.340 ,1,0,2.,12.0,0.,12.0,0.,12.0,0.,12.0
1979-07-07 01:02:13.340 ,1,0,0.,12.0,0.,12.0,0.,12.0,1.,12.0
1979-07-07 01:02:25.340 ,2,1,3.,12.0,0.,12.0,0.,12.0,0.,12.0
1979-07-07 01:02:37.340 ,2,1,0.,12.0,0.,12.0,0.,12.0,0.,12.0
1979-07-07 01:02:49.340 ,2,0,1.,12.0,0.,12.0,0.,12.0,0.,12.0
1979-07-07 01:03:01.340 ,2,0,0.,12.0,0.,12.0,0.,12.0,0.,12.0
1979-07-07 01:03:13.340 ,3,1,5.,12.0,0.,12.0,0.,12.0,0.,12.0
1979-07-07 01:03:25.340 ,3,1,1.,12.0,0.,12.0,0.,12.0,1.,12.0
1979-07-07 01:03:37.340 ,3,0,1.,12.0,0.,12.0,0.,12.0,0.,12.0
1979-07-07 01:03:49.340 ,3,0,0.,12.0,0.,12.0,0.,12.0,0.,12.0
1979-07-07 01:04:01.340 ,4,1,3.,12.0,0.,12.0,0.,12.0,0.,12.0
1979-07-07 01:04:13.340 ,4,1,7.,12.0,0.,12.0,0.,12.0,1.,12.0
1979-07-07 01:04:25.340 ,4,0,9.,12.0,0.,12.0,0.,12.0,0.,12.0
1979-07-07 01:04:37.340 ,4,0,10.,12.0,0.,12.0,0.,12.0,0.,12.0
1979-07-07 01:04:49.340 ,5,1,9.,12.0,0.,12.0,0.,12.0,0.,12.0
1979-07-07 01:05:01.340 ,5,1,15.,12.0,0.,12.0,0.,12.0,0.,12.0
1979-07-07 01:05:13.340 ,5,0,11.,12.0,0.,12.0,0.,12.0,0.,12.0
1979-07-07 01:05:25.340 ,5,0,14.,12.0,0.,12.0,0.,12.0,1.,12.0
1979-07-07 01:05:37.340 ,6,1,14.,12.0,0.,12.0,0.,12.0,0.,12.0
1979-07-07 01:05:49.340 ,6,1,11.,12.0,0.,12.0,0.,12.0,0.,12.0
1979-07-07 01:06:01.340 ,6,0,13.,12.0,0.,12.0,0.,12.0,0.,12.0
1979-07-07 01:06:13.340 ,6,0,3.,12.0,0.,12.0,0.,12.0,0.,12.0
1979-07-07 01:06:25.340 ,7,0,10.,12.0,0.,12.0,0.,12.0,0.,12.0
1979-07-07 01:06:37.340 ,7,0,3.,12.0,0.,12.0,0.,12.0,0.,12.0
1979-07-07 01:06:49.340 ,7,0,0.,12.0,0.,12.0,0.,12.0,0.,12.0
1979-07-07 01:07:01.340 ,7,0,0.,12.0,0.,12.0,0.,12.0,0.,12.0
1979-07-07 01:07:13.340 ,4,1,1.,12.0,0.,12.0,0.,12.0,0.,12.0
1979-07-07 01:07:25.340 ,4,1,8.,12.0,0.,12.0,0.,12.0,0.,12.0
1979-07-07 01:07:37.340 ,0,1,2.,12.0,0.,12.0,0.,12.0,0.,12.0
1979-07-07 01:07:49.340 ,0,1,3.,12.0,0.,12.0,0.,12.0,0.,12.0
1979-07-07 01:08:01.340 ,3,1,0.,12.0,0.,12.0,0.,12.0,0.,12.0
1979-07-07 01:08:13.340 ,3,1,0.,12.0,0.,12.0,0.,12.0,1.,12.0
1979-07-07 01:08:25.340 ,7,1,2.,12.0,0.,12.0,0.,12.0,2.,12.0
1979-07-07 01:08:37.340 ,7,1,5.,12.0,0.,12.0,0.,12.0,1.,12.0
1979-07-07 01:08:49.340 ,4,1,0.,12.0,0.,12.0,0.,12.0,1.,12.0
1979-07-07 01:09:01.340 ,4,1,8.,12.0,0.,12.0,0.,12.0,0.,12.0
1979-07-07 01:09:13.340 ,0,1,2.,12.0,0.,12.0,0.,12.0,0.,12.0
1979-07-07 01:09:25.340 ,0,1,2.,12.0,0.,12.0,0.,12.0,0.,12.0
1979-07-07 01:09:37.340 ,3,1,1.,12.0,0.,12.0,0.,12.0,0.,12.0
1979-07-07 01:09:49.340 ,3,1,1.,12.0,0.,12.0,0.,12.0,1.,12.0
1979-07-07 01:10:01.340 ,7,1,3.,12.0,0.,12.0,0.,12.0,0.,12.0
1979-07-07 01:10:13.340 ,7,1,5.,12.0,0.,12.0,0.,12.0,0.,12.0
1979-07-07 01:10:25.340 ,4,1,4.,12.0,0.,12.0,0.,12.0,0.,12.0
1979-07-07 01:10:37.340 ,4,1,6.,12.0,0.,12.0,0.,12.0,0.,12.0
1979-07-07 01:10:49.340 ,0,1,0.,12.0,0.,12.0,0.,12.0,0.,12.0
1979-07-07 01:11:01.340 ,0,1,1.,12.0,0.,12.0,0.,12.0,0.,12.0
1979-07-07 01:11:13.340 ,3,1,1.,12.0,0.,12.0,0.,12.0,1.,12.0
1979-07-07 01:11:25.340 ,3,1,0.,12.0,0.,12.0,0.,12.0,0.,12.0
1979-07-07 01:11:37.340 ,7,1,6.,12.0,0.,12.0,0.,12.0,0.,12.0
1979-07-07 01:11:49.340 ,7,1,4.,12.0,0.,12.0,0.,12.0,0.,12.0
1979-07-07 01:12:01.340 ,4,1,0.,12.0,0.,12.0,0.,12.0,0.,12.0
1979-07-07 01:12:13.340 ,4,1,7.,12.0,0.,12.0,0.,12.0,0.,12.0
1979-07-07 01:12:25.340 ,0,1,1.,12.0,0.,12.0,0.,12.0,0.,12.0
1979-07-07 01:12:37.340 ,0,1,0.,12.0,0.,12.0,0.,12.0,0.,12.0
1979-07-07 01:12:49.340 ,3,1,4.,12.0,0.,12.0,0.,12.0,0.,12.0
1979-07-07 01:13:01.340 ,3,1,1.,12.0,0.,12.0,0.,12.0,0.,12.0
1979-07-07 01:13:13.340 ,7,1,5.,12.0,0.,12.0,0.,12.0,0.,12.0
1979-07-07 01:13:25.340 ,7,1,6.,12.0,0.,12.0,0.,12.0,0.,12.0
1979-07-07 01:13:37.340 ,4,1,0.,12.0,0.,12.0,0.,12.0,1.,12.0
1979-07-07 01:13:49.340 ,4,1,6.,12.0,0.,12.0,0.,12.0,0.,12.0
1979-07-07 01:14:01.340 ,0,1,1.,12.0,0.,12.0,0.,12.0,0.,12.0
1979-07-07 01:14:13.340 ,0,1,0.,12.0,0.,12.0,0.,12.0,0.,12.0
1979-07-07 01:14:25.340 ,3,1,1.,12.0,0.,12.0,0.,12.0,0.,12.0
1979-07-07 01:14:37.340 ,3,1,0.,12.0,0.,12.0,0.,12.0,0.,12.0
1979-07-07 01:14:49.340 ,7,1,8.,12.0,0.,12.0,0.,12.0,0.,12.0
1979-07-07 01:15:01.340 ,7,1,5.,12.0,0.,12.0,0.,12.0,0.,12.0
1979-07-07 01:15:13.340 ,4,1,1.,12.0,0.,12.0,0.,12.0,0.,12.0
1979-07-07 01:15:25.340 ,4,1,15.,12.0,0.,12.0,0.,12.0,0.,12.0
1979-07-07 01:15:37.340 ,0,1,1.,12.0,0.,12.0,0.,12.0,0.,12.0
1979-07-07 01:15:49.340 ,0,1,2.,12.0,0.,12.0,0.,12.0,1.,12.0
1979-07-07 01:16:01.340 ,3,1,2.,12.0,0.,12.0,0.,12.0,0.,12.0
1979-07-07 01:16:13.340 ,3,1,1.,12.0,0.,12.0,0.,12.0,0.,12.0
1979-07-07 01:16:25.340 ,7,1,6.,12.0,0.,12.0,0.,12.0,0.,12.0
1979-07-07 01:16:37.340 ,7,1,7.,12.0,0.,12.0,0.,12.0,0.,12.0
1979-07-07 01:16:49.340 ,4,1,2.,12.0,0.,12.0,0.,12.0,0.,12.0
1979-07-07 01:17:01.340 ,4,1,10.,12.0,0.,12.0,0.,12.0,0.,12.0